contact:dominique.lefevre@mio.osupytheas.fr, maurice.libes@osupytheas.fr, didier.mallarino@osupytheas.fr
Project:EMSO http://www.emso-fr.org/EMSO-France
Depth: 2436.0 m
Title:EMSO Ligure Ouest : Data MII capteur AQUADOPP
Date,Latitude,Longitude,X_East,Y_North,Z_Up,Amplitude_X,Amplitude_Y,Amplitude_Z,Batterie,SoundSpeed,Heading,Pitch,Roll,Pressure,TIS,Speed,Direction
, degrees North, degrees East, m.s-1, m.s-1,m.s-1, 1, 1, 1, Volt, m.s-1, degree, degree, degree, dbar, degree_C, m.s-1, degree
2019-05-27T00:00:26,42.805,6.029,0.021,-0.024,-0.003,97.0,106.0,98.0,13.4,1505.3,324.1,-0.7,1.9,2470.085,13.32,0.031,138.8
2019-05-27T00:03:27,42.805,6.029,0.034,-0.007,-0.01,99.0,105.0,97.0,13.4,1505.3,323.9,-0.8,1.9,2470.098,13.32,0.034,101.6
2019-05-27T00:06:28,42.805,6.029,-0.005,0.0,-0.01,100.0,103.0,96.0,13.3,1505.3,325.8,-0.8,1.8,2470.103,13.32,0.005,270.0
2019-05-27T00:09:29,42.805,6.029,0.041,0.0,-0.005,98.0,106.0,97.0,13.4,1505.3,328.3,-0.8,1.9,2470.075,13.32,0.041,90.0
2019-05-27T00:12:30,42.805,6.029,0.041,-0.015,-0.014,98.0,105.0,96.0,13.4,1505.3,326.0,-0.8,1.9,2470.106,13.32,0.043,110.1
2019-05-27T00:15:31,42.805,6.029,0.031,-0.012,-0.01,98.0,105.0,97.0,13.4,1505.3,325.2,-0.8,1.9,2470.111,13.32,0.033,111.2
2019-05-27T00:18:32,42.805,6.029,0.023,-0.015,-0.007,97.0,104.0,96.0,13.4,1505.3,322.8,-0.7,1.9,2470.113,13.32,0.027,123.1
2019-05-27T00:21:33,42.805,6.029,0.049,0.002,0.018,99.0,103.0,97.0,13.4,1505.3,325.6,-0.7,1.9,2470.047,13.32,0.049,87.7
2019-05-27T00:24:34,42.805,6.029,0.037,-0.024,-0.005,98.0,104.0,96.0,13.3,1505.3,326.5,-0.8,1.8,2470.093,13.32,0.044,123.0
2019-05-27T00:27:35,42.805,6.029,0.043,-0.01,0.005,98.0,103.0,96.0,13.3,1505.3,326.5,-0.7,1.9,2470.121,13.32,0.044,103.1
2019-05-27T00:30:36,42.805,6.029,0.034,-0.023,-0.02,98.0,104.0,95.0,13.4,1505.3,327.7,-0.8,1.9,2470.108,13.32,0.041,124.1
2019-05-27T00:33:37,42.805,6.029,0.027,-0.009,-0.023,98.0,104.0,96.0,13.4,1505.3,322.8,-0.8,1.8,2470.062,13.32,0.028,108.4
2019-05-27T00:36:38,42.805,6.029,0.055,-0.033,-0.035,97.0,101.0,97.0,13.4,1505.3,324.7,-0.8,1.8,2470.091,13.32,0.064,121.0
2019-05-27T00:39:39,42.805,6.029,0.024,0.006,0.003,98.0,104.0,96.0,13.4,1505.3,328.3,-0.8,1.9,2470.112,13.32,0.024,76.0
2019-05-27T00:42:40,42.805,6.029,0.048,0.001,0.007,98.0,103.0,95.0,13.4,1505.3,323.2,-0.8,1.8,2470.105,13.32,0.048,88.8
2019-05-27T00:45:41,42.805,6.029,0.018,0.0,-0.012,98.0,102.0,97.0,13.3,1505.3,325.1,-0.8,1.9,2470.092,13.32,0.018,90.0
2019-05-27T00:48:42,42.805,6.029,0.023,-0.001,0.013,97.0,102.0,95.0,13.4,1505.3,326.8,-0.7,1.9,2470.081,13.32,0.023,92.5
2019-05-27T00:51:43,42.805,6.029,0.042,-0.009,-0.014,98.0,102.0,95.0,13.3,1505.3,327.4,-0.8,1.8,2470.053,13.32,0.042,102.1
2019-05-27T00:54:44,42.805,6.029,0.029,-0.002,0.003,98.0,104.0,95.0,13.3,1505.3,327.8,-0.8,1.9,2470.069,13.32,0.029,93.9
2019-05-27T00:57:45,42.805,6.029,0.047,-0.01,-0.035,97.0,103.0,96.0,13.4,1505.3,326.1,-0.8,1.9,2470.063,13.32,0.048,102.0
2019-05-27T01:00:46,42.805,6.029,0.03,-0.007,-0.025,98.0,103.0,97.0,13.4,1505.3,327.8,-0.7,1.9,2470.116,13.32,0.03,103.1
2019-05-27T01:03:47,42.805,6.029,0.039,-0.033,-0.024,98.0,103.0,95.0,13.4,1505.3,327.3,-0.8,1.9,2470.111,13.32,0.051,130.2
2019-05-27T01:06:48,42.805,6.029,0.051,-0.02,-0.019,99.0,104.0,97.0,13.4,1505.3,327.1,-0.8,1.9,2470.08,13.32,0.054,111.4
2019-05-27T01:09:49,42.805,6.029,0.018,-0.039,-0.043,98.0,103.0,95.0,13.4,1505.3,324.7,-0.8,1.9,2470.081,13.32,0.042,155.2
2019-05-27T01:12:50,42.805,6.029,0.044,0.009,-0.008,98.0,104.0,95.0,13.4,1505.3,327.9,-0.8,1.9,2470.075,13.32,0.044,78.4
2019-05-27T01:15:51,42.805,6.029,0.026,-0.028,-0.015,99.0,101.0,96.0,13.3,1505.3,326.1,-0.7,1.9,2470.107,13.32,0.038,137.1
2019-05-27T01:18:52,42.805,6.029,0.035,-0.01,0.01,98.0,102.0,95.0,13.4,1505.3,327.5,-0.8,1.9,2470.094,13.32,0.036,105.9
2019-05-27T01:21:53,42.805,6.029,0.016,-0.012,-0.028,98.0,101.0,96.0,13.4,1505.3,325.0,-0.8,1.9,2470.113,13.32,0.02,126.9
2019-05-27T01:24:54,42.805,6.029,0.001,-0.003,-0.032,98.0,102.0,97.0,13.4,1505.3,325.3,-0.8,1.9,2470.107,13.32,0.003,161.6
2019-05-27T01:27:55,42.805,6.029,0.038,-0.005,-0.029,98.0,101.0,95.0,13.3,1505.3,325.0,-0.7,1.9,2470.091,13.32,0.038,97.5
2019-05-27T01:30:56,42.805,6.029,0.041,-0.032,-0.021,96.0,102.0,96.0,13.4,1505.3,327.7,-0.8,1.9,2470.092,13.32,0.052,128.0
2019-05-27T01:33:57,42.805,6.029,0.054,-0.017,-0.037,98.0,104.0,95.0,13.4,1505.3,327.5,-0.8,1.9,2470.087,13.32,0.056,107.5
2019-05-27T01:36:58,42.805,6.029,0.007,-0.005,-0.037,99.0,102.0,96.0,13.4,1505.3,325.9,-0.8,1.8,2470.085,13.32,0.008,125.5
2019-05-27T01:39:59,42.805,6.029,0.025,-0.018,-0.023,99.0,102.0,96.0,13.4,1505.3,325.6,-0.8,1.8,2470.08,13.33,0.03,125.8
2019-05-27T01:43:00,42.805,6.029,0.008,0.004,-0.022,98.0,101.0,97.0,13.4,1505.3,325.1,-0.8,1.9,2470.062,13.33,0.008,63.4
2019-05-27T01:46:01,42.805,6.029,0.026,-0.018,-0.016,97.0,104.0,93.0,13.3,1505.3,326.6,-0.8,1.9,2470.121,13.32,0.031,124.7
2019-05-27T01:49:02,42.805,6.029,0.044,0.011,-0.038,96.0,104.0,96.0,13.3,1505.3,324.2,-0.8,1.9,2470.079,13.32,0.045,76.0
2019-05-27T01:52:03,42.805,6.029,0.018,0.023,-0.01,94.0,102.0,96.0,13.4,1505.3,325.8,-0.8,1.8,2470.086,13.32,0.029,38.0
2019-05-27T01:55:04,42.805,6.029,0.063,0.004,-0.019,98.0,102.0,96.0,13.4,1505.3,328.0,-0.8,1.9,2470.076,13.32,0.063,86.4
2019-05-27T01:58:05,42.805,6.029,0.068,0.0,0.0,98.0,102.0,96.0,13.4,1505.3,326.3,-0.8,1.9,2470.062,13.32,0.067,90.0
2019-05-27T02:01:06,42.805,6.029,0.031,-0.019,-0.049,98.0,104.0,95.0,13.3,1505.3,324.8,-0.8,1.9,2470.078,13.32,0.036,121.5
2019-05-27T02:04:07,42.805,6.029,0.02,0.006,-0.019,97.0,103.0,96.0,13.4,1505.3,325.2,-0.8,1.9,2470.096,13.32,0.02,73.3
2019-05-27T02:07:08,42.805,6.029,0.02,-0.013,-0.071,97.0,104.0,96.0,13.4,1505.3,323.0,-0.8,1.9,2470.135,13.32,0.023,123.0
2019-05-27T02:10:09,42.805,6.029,0.042,0.017,-0.012,97.0,103.0,94.0,13.4,1505.3,325.3,-0.8,1.9,2470.098,13.32,0.045,68.0
2019-05-27T02:13:10,42.805,6.029,0.034,-0.008,-0.053,99.0,100.0,95.0,13.4,1505.3,326.0,-0.7,1.9,2470.074,13.32,0.034,103.2
2019-05-27T02:16:11,42.805,6.029,0.054,-0.015,-0.048,96.0,101.0,95.0,13.3,1505.3,324.2,-0.8,1.9,2470.081,13.32,0.056,105.5
2019-05-27T02:19:12,42.805,6.029,0.041,0.017,-0.015,97.0,101.0,95.0,13.4,1505.3,327.3,-0.8,1.9,2470.064,13.32,0.044,67.5
2019-05-27T02:22:13,42.805,6.029,0.048,0.006,0.0,98.0,101.0,96.0,13.4,1505.3,327.7,-0.8,1.9,2470.13,13.33,0.048,82.9
2019-05-27T02:25:14,42.805,6.029,0.013,0.017,-0.044,98.0,102.0,96.0,13.3,1505.3,324.8,-0.8,1.9,2470.095,13.33,0.021,37.4
2019-05-27T02:28:15,42.805,6.029,0.042,0.003,-0.027,99.0,103.0,95.0,13.4,1505.3,324.4,-0.7,1.8,2470.1,13.33,0.042,85.9
2019-05-27T02:31:16,42.805,6.029,0.018,-0.017,-0.059,97.0,102.0,97.0,13.4,1505.3,326.9,-0.8,1.8,2470.099,13.32,0.024,133.4
2019-05-27T02:34:17,42.805,6.029,0.049,0.006,-0.028,95.0,105.0,97.0,13.4,1505.3,324.2,-0.7,1.9,2470.124,13.32,0.049,83.0
2019-05-27T02:37:18,42.805,6.029,0.06,-0.016,-0.017,99.0,104.0,94.0,13.4,1505.3,325.7,-0.8,1.8,2470.06,13.32,0.062,104.9
2019-05-27T02:40:19,42.805,6.029,0.031,0.002,-0.049,98.0,104.0,96.0,13.3,1505.3,325.6,-0.7,1.8,2470.075,13.32,0.031,86.3
2019-05-27T02:43:20,42.805,6.029,0.021,0.011,-0.01,98.0,105.0,95.0,13.4,1505.3,326.4,-0.8,1.9,2470.089,13.32,0.023,62.4
2019-05-27T02:46:21,42.805,6.029,0.025,-0.006,-0.076,98.0,105.0,96.0,13.4,1505.3,325.7,-0.8,1.9,2470.11,13.32,0.025,103.5
2019-05-27T02:49:22,42.805,6.029,0.042,-0.004,-0.056,99.0,104.0,95.0,13.4,1505.3,324.2,-0.7,1.8,2470.135,13.32,0.042,95.4
2019-05-27T02:52:23,42.805,6.029,0.03,-0.007,-0.028,98.0,105.0,95.0,13.3,1505.3,324.5,-0.7,1.9,2470.076,13.32,0.03,103.1
2019-05-27T02:55:24,42.805,6.029,0.045,0.0,-0.038,96.0,105.0,95.0,13.4,1505.3,325.3,-0.8,1.9,2470.099,13.32,0.045,90.0
2019-05-27T02:58:25,42.805,6.029,0.032,0.004,-0.001,99.0,102.0,95.0,13.4,1505.3,324.0,-0.8,1.9,2470.077,13.32,0.032,82.9
2019-05-27T03:01:26,42.805,6.029,0.028,-0.004,-0.05,99.0,102.0,96.0,13.4,1505.3,326.2,-0.7,1.9,2470.06,13.32,0.028,98.1
2019-05-27T03:04:27,42.805,6.029,0.049,0.018,-0.005,99.0,104.0,95.0,13.4,1505.3,324.8,-0.8,1.9,2470.082,13.32,0.052,69.8
2019-05-27T03:07:28,42.805,6.029,0.061,0.001,-0.028,98.0,104.0,95.0,13.4,1505.3,328.1,-0.8,1.9,2470.063,13.32,0.061,89.1
2019-05-27T03:10:29,42.805,6.029,0.022,0.015,-0.023,99.0,104.0,96.0,13.3,1505.3,323.0,-0.8,1.9,2470.082,13.32,0.026,55.7
2019-05-27T03:13:30,42.805,6.029,0.047,-0.004,0.004,97.0,105.0,97.0,13.3,1505.3,324.8,-0.8,1.9,2470.066,13.32,0.047,94.9
2019-05-27T03:16:31,42.805,6.029,0.027,0.011,-0.026,100.0,103.0,95.0,13.4,1505.3,325.3,-0.8,1.9,2470.054,13.32,0.029,67.8
2019-05-27T03:19:32,42.805,6.029,0.027,-0.016,-0.051,100.0,104.0,96.0,13.4,1505.3,324.9,-0.7,1.9,2470.086,13.32,0.031,120.7
2019-05-27T03:22:33,42.805,6.029,0.037,0.005,-0.026,98.0,105.0,97.0,13.4,1505.3,323.9,-0.8,1.8,2470.064,13.32,0.037,82.3
2019-05-27T03:25:34,42.805,6.029,0.023,0.004,-0.064,98.0,104.0,96.0,13.3,1505.3,326.1,-0.8,1.9,2470.104,13.32,0.023,80.1
2019-05-27T03:28:35,42.805,6.029,0.02,-0.003,-0.063,98.0,102.0,96.0,13.4,1505.3,327.0,-0.7,1.8,2470.004,13.32,0.02,98.5
2019-05-27T03:31:36,42.805,6.029,-0.001,0.004,-0.045,97.0,102.0,96.0,13.4,1505.3,324.8,-0.8,1.9,2470.058,13.32,0.004,346.0
2019-05-27T03:34:37,42.805,6.029,0.048,0.0,-0.032,97.0,101.0,96.0,13.4,1505.3,324.8,-0.8,1.8,2470.085,13.33,0.048,90.0
2019-05-27T03:37:38,42.805,6.029,0.016,0.009,-0.068,97.0,108.0,97.0,13.3,1505.3,325.8,-0.7,1.8,2470.076,13.32,0.018,60.6
2019-05-27T03:40:39,42.805,6.029,0.033,0.014,-0.021,98.0,102.0,96.0,13.4,1505.3,326.2,-0.8,1.9,2470.077,13.33,0.035,67.0
2019-05-27T03:43:40,42.805,6.029,0.032,0.014,-0.005,99.0,101.0,96.0,13.4,1505.3,325.8,-0.8,1.9,2470.111,13.33,0.034,66.4
2019-05-27T03:46:41,42.805,6.029,0.0,0.007,-0.064,99.0,104.0,97.0,13.4,1505.3,325.6,-0.7,1.9,2470.097,13.33,0.007,0.0
2019-05-27T03:49:42,42.805,6.029,0.01,0.015,-0.047,99.0,101.0,96.0,13.4,1505.3,325.2,-0.8,1.8,2470.089,13.33,0.018,33.7
2019-05-27T03:52:43,42.805,6.029,0.019,-0.005,-0.056,97.0,100.0,96.0,13.4,1505.3,326.5,-0.7,1.9,2470.02,13.32,0.019,104.7
2019-05-27T03:55:44,42.805,6.029,0.032,0.02,0.003,97.0,102.0,97.0,13.4,1505.3,326.1,-0.8,1.9,2470.13,13.32,0.037,58.0
2019-05-27T03:58:45,42.805,6.029,0.056,0.002,-0.032,99.0,103.0,95.0,13.3,1505.3,326.9,-0.7,1.8,2470.06,13.32,0.056,88.0
2019-05-27T04:01:46,42.805,6.029,0.042,0.011,-0.037,98.0,101.0,95.0,13.4,1505.3,324.0,-0.8,1.8,2470.069,13.32,0.043,75.3
2019-05-27T04:04:47,42.805,6.029,0.048,0.009,-0.022,99.0,102.0,97.0,13.3,1505.3,325.9,-0.8,1.9,2470.037,13.32,0.048,79.4
2019-05-27T04:07:48,42.805,6.029,0.02,0.018,-0.035,97.0,103.0,96.0,13.4,1505.3,328.4,-0.8,1.8,2470.054,13.33,0.026,48.0
2019-05-27T04:10:49,42.805,6.029,0.007,0.006,-0.049,98.0,102.0,97.0,13.4,1505.3,323.7,-0.8,1.8,2470.073,13.33,0.009,49.4
2019-05-27T04:13:50,42.805,6.029,0.035,-0.005,-0.032,97.0,102.0,95.0,13.4,1505.3,325.4,-0.7,1.9,2470.091,13.33,0.035,98.1
2019-05-27T04:16:51,42.805,6.029,0.034,0.002,-0.062,98.0,101.0,96.0,13.4,1505.3,327.4,-0.8,1.9,2470.05,13.33,0.034,86.6
2019-05-27T04:19:52,42.805,6.029,0.025,0.018,-0.023,97.0,104.0,96.0,13.4,1505.3,323.7,-0.8,1.9,2470.085,13.33,0.03,54.2
2019-05-27T04:22:53,42.805,6.029,0.029,-0.012,-0.029,98.0,102.0,97.0,13.4,1505.3,325.9,-0.8,1.9,2470.072,13.33,0.031,112.5
2019-05-27T04:25:54,42.805,6.029,0.038,0.008,-0.004,99.0,102.0,97.0,13.4,1505.3,324.9,-0.7,1.8,2470.067,13.33,0.038,78.1
2019-05-27T04:28:55,42.805,6.029,0.047,0.01,-0.012,97.0,101.0,96.0,13.4,1505.3,326.0,-0.8,1.8,2470.091,13.33,0.048,78.0
2019-05-27T04:31:56,42.805,6.029,0.0,0.002,-0.067,99.0,104.0,95.0,13.3,1505.3,325.4,-0.8,1.9,2470.063,13.33,0.002,0.0
2019-05-27T04:34:57,42.805,6.029,0.023,-0.01,-0.059,99.0,102.0,96.0,13.4,1505.3,323.7,-0.7,1.8,2470.016,13.33,0.025,113.5
2019-05-27T04:37:58,42.805,6.029,0.037,-0.01,-0.038,98.0,101.0,96.0,13.4,1505.3,327.3,-0.8,1.9,2470.042,13.33,0.038,105.1
2019-05-27T04:40:59,42.805,6.029,0.045,-0.011,-0.057,98.0,102.0,95.0,13.3,1505.3,326.5,-0.8,1.8,2470.06,13.33,0.046,103.7
2019-05-27T04:44:00,42.805,6.029,-0.013,0.012,-0.054,99.0,102.0,97.0,13.4,1505.3,323.0,-0.8,1.9,2470.07,13.33,0.017,312.7
2019-05-27T04:47:01,42.805,6.029,0.011,0.003,-0.041,98.0,102.0,96.0,13.4,1505.3,326.8,-0.8,1.9,2470.038,13.33,0.011,74.7
2019-05-27T04:50:02,42.805,6.029,-0.029,0.022,-0.059,98.0,104.0,95.0,13.4,1505.3,325.9,-0.8,1.9,2470.072,13.33,0.036,307.2
2019-05-27T04:53:03,42.805,6.029,0.022,0.009,-0.049,99.0,105.0,95.0,13.4,1505.3,326.5,-0.8,1.8,2470.052,13.33,0.023,67.8
2019-05-27T04:56:04,42.805,6.029,0.0,-0.002,-0.048,98.0,104.0,96.0,13.4,1505.3,323.2,-0.8,1.8,2470.051,13.33,0.002,180.0
2019-05-27T04:59:05,42.805,6.029,0.015,0.013,-0.035,99.0,101.0,96.0,13.4,1505.3,327.2,-0.7,1.8,2470.047,13.33,0.019,49.1
2019-05-27T05:02:06,42.805,6.029,0.028,0.003,-0.027,97.0,101.0,96.0,13.4,1505.3,327.5,-0.8,1.9,2470.049,13.33,0.028,83.9
2019-05-27T05:05:07,42.805,6.029,0.028,-0.007,-0.034,97.0,102.0,95.0,13.4,1505.3,328.0,-0.8,1.8,2470.055,13.33,0.028,104.0
2019-05-27T05:08:08,42.805,6.029,0.0,0.003,-0.049,99.0,102.0,96.0,13.4,1505.3,327.4,-0.8,1.8,2470.06,13.33,0.003,0.0
2019-05-27T05:11:09,42.805,6.029,0.0,0.002,-0.085,98.0,103.0,96.0,13.3,1505.3,326.3,-0.8,1.8,2470.06,13.33,0.002,0.0
2019-05-27T05:14:10,42.805,6.029,0.045,0.0,-0.021,98.0,101.0,97.0,13.3,1505.3,323.3,-0.8,1.8,2470.059,13.33,0.045,90.0
2019-05-27T05:17:11,42.805,6.029,-0.024,0.004,-0.06,98.0,102.0,96.0,13.3,1505.3,326.3,-0.8,1.9,2470.048,13.33,0.024,279.5
2019-05-27T05:20:12,42.805,6.029,0.041,0.005,-0.018,99.0,103.0,96.0,13.4,1505.3,324.6,-0.8,1.9,2470.019,13.33,0.041,83.0
2019-05-27T05:23:13,42.805,6.029,0.027,0.027,-0.041,98.0,104.0,96.0,13.3,1505.3,325.3,-0.8,1.8,2470.038,13.33,0.038,45.0
2019-05-27T05:26:14,42.805,6.029,0.01,-0.002,-0.058,98.0,104.0,96.0,13.3,1505.3,324.1,-0.8,1.9,2470.058,13.33,0.01,101.3
2019-05-27T05:29:15,42.805,6.029,0.026,0.009,-0.061,98.0,103.0,96.0,13.3,1505.3,325.1,-0.7,1.8,2470.07,13.33,0.027,70.9
2019-05-27T05:32:16,42.805,6.029,0.014,-0.003,-0.044,98.0,103.0,97.0,13.4,1505.3,328.1,-0.8,1.9,2470.059,13.33,0.014,102.1
2019-05-27T05:35:17,42.805,6.029,0.026,0.009,-0.049,98.0,102.0,96.0,13.3,1505.3,326.0,-0.7,1.9,2470.015,13.33,0.027,70.9
2019-05-27T05:38:18,42.805,6.029,-0.017,0.011,-0.065,98.0,101.0,96.0,13.3,1505.3,326.9,-0.8,1.8,2470.046,13.33,0.02,302.9
2019-05-27T05:41:19,42.805,6.029,0.031,0.004,-0.012,98.0,103.0,97.0,13.4,1505.3,325.7,-0.7,1.8,2470.036,13.33,0.031,82.7
2019-05-27T05:44:20,42.805,6.029,0.047,0.019,0.0,97.0,102.0,96.0,13.3,1505.3,326.7,-0.8,1.9,2470.038,13.33,0.05,68.0
2019-05-27T05:47:21,42.805,6.029,0.036,0.007,-0.019,99.0,102.0,96.0,13.4,1505.3,325.6,-0.8,1.8,2470.061,13.33,0.036,79.0
2019-05-27T05:50:22,42.805,6.029,0.079,0.011,0.001,98.0,102.0,96.0,13.3,1505.3,325.1,-0.7,1.9,2470.086,13.33,0.079,82.1
2019-05-27T05:53:23,42.805,6.029,0.043,0.019,-0.035,98.0,103.0,95.0,13.4,1505.3,323.5,-0.8,1.9,2469.999,13.33,0.047,66.2
2019-05-27T05:56:24,42.805,6.029,0.007,-0.003,-0.034,97.0,104.0,96.0,13.4,1505.3,325.2,-0.7,1.9,2470.001,13.33,0.007,113.2
2019-05-27T05:59:25,42.805,6.029,0.035,0.0,-0.041,97.0,102.0,96.0,13.3,1505.3,325.2,-0.8,1.9,2470.007,13.32,0.035,90.0
2019-05-27T06:02:26,42.805,6.029,0.047,0.004,-0.027,98.0,101.0,95.0,13.4,1505.3,326.5,-0.8,1.9,2470.026,13.32,0.047,85.1
2019-05-27T06:05:27,42.805,6.029,0.007,0.0,-0.063,99.0,103.0,96.0,13.4,1505.3,327.8,-0.8,1.9,2470.005,13.33,0.007,90.0
2019-05-27T06:08:28,42.805,6.029,-0.036,-0.007,-0.068,99.0,104.0,96.0,13.4,1505.3,324.2,-0.8,1.8,2470.029,13.33,0.036,259.0
2019-05-27T06:11:29,42.805,6.029,-0.019,0.01,-0.089,100.0,104.0,96.0,13.3,1505.3,327.8,-0.8,1.9,2469.998,13.33,0.021,297.8
2019-05-27T06:14:30,42.805,6.029,0.013,0.017,-0.066,97.0,106.0,96.0,13.4,1505.3,324.1,-0.7,1.9,2470.032,13.33,0.021,37.4
2019-05-27T06:17:31,42.805,6.029,0.024,0.013,-0.057,97.0,104.0,95.0,13.4,1505.3,324.9,-0.8,1.9,2470.049,13.33,0.027,61.6
2019-05-27T06:20:32,42.805,6.029,0.036,0.018,-0.019,99.0,105.0,96.0,13.4,1505.3,323.9,-0.7,1.8,2470.019,13.33,0.04,63.4
2019-05-27T06:23:33,42.805,6.029,0.046,0.005,-0.017,96.0,104.0,96.0,13.4,1505.3,324.5,-0.8,1.9,2470.06,13.33,0.046,83.8
2019-05-27T06:26:34,42.805,6.029,0.037,0.0,-0.038,98.0,105.0,97.0,13.3,1505.3,325.6,-0.8,1.9,2470.023,13.32,0.037,90.0
2019-05-27T06:29:35,42.805,6.029,0.047,0.014,-0.031,100.0,101.0,96.0,13.4,1505.3,327.4,-0.8,1.8,2469.993,13.33,0.049,73.4
2019-05-27T06:32:36,42.805,6.029,0.009,0.001,-0.042,97.0,104.0,96.0,13.4,1505.3,322.8,-0.8,1.9,2470.048,13.33,0.009,83.7
2019-05-27T06:35:37,42.805,6.029,0.011,0.0,-0.057,98.0,104.0,96.0,13.3,1505.3,326.2,-0.7,1.8,2470.009,13.33,0.011,90.0
2019-05-27T06:38:38,42.805,6.029,0.007,0.002,-0.042,97.0,102.0,97.0,13.4,1505.3,324.7,-0.8,1.9,2469.967,13.33,0.007,74.1
2019-05-27T06:41:39,42.805,6.029,0.029,0.023,-0.018,97.0,103.0,96.0,13.4,1505.3,328.2,-0.8,1.8,2470.003,13.33,0.037,51.6
2019-05-27T06:44:40,42.805,6.029,0.035,0.023,0.01,97.0,102.0,97.0,13.4,1505.3,326.2,-0.8,1.8,2469.992,13.33,0.041,56.7
2019-05-27T06:47:41,42.805,6.029,0.002,0.011,-0.027,100.0,104.0,96.0,13.3,1505.3,327.7,-0.7,1.9,2469.993,13.33,0.011,10.3
2019-05-27T06:50:42,42.805,6.029,0.024,0.01,-0.028,99.0,102.0,96.0,13.3,1505.3,323.3,-0.7,1.8,2470.005,13.33,0.026,67.4
2019-05-27T06:53:43,42.805,6.029,0.058,0.025,-0.023,97.0,104.0,96.0,13.4,1505.3,322.8,-0.8,1.8,2470.028,13.33,0.063,66.7
2019-05-27T06:56:44,42.805,6.029,0.059,0.036,-0.007,98.0,104.0,96.0,13.4,1505.3,323.2,-0.8,1.8,2470.026,13.33,0.069,58.6
2019-05-27T06:59:45,42.805,6.029,0.057,0.013,0.012,99.0,102.0,97.0,13.4,1505.3,326.6,-0.8,1.8,2469.954,13.33,0.058,77.2
2019-05-27T07:02:46,42.805,6.029,0.074,0.025,0.03,99.0,104.0,96.0,13.4,1505.3,328.2,-0.8,1.8,2470.038,13.33,0.078,71.3
2019-05-27T07:05:47,42.805,6.029,0.026,0.001,-0.058,98.0,105.0,94.0,13.4,1505.3,324.1,-0.8,1.9,2470.055,13.33,0.026,87.8
2019-05-27T07:08:48,42.805,6.029,0.013,-0.001,-0.036,100.0,103.0,96.0,13.4,1505.3,325.8,-0.8,1.9,2469.982,13.33,0.013,94.4
2019-05-27T07:11:49,42.805,6.029,-0.002,0.001,-0.037,99.0,102.0,97.0,13.4,1505.3,323.3,-0.8,1.9,2469.964,13.33,0.002,296.6
2019-05-27T07:14:50,42.805,6.029,0.02,0.028,-0.002,98.0,100.0,97.0,13.4,1505.3,325.2,-0.7,1.9,2469.969,13.33,0.034,35.5
2019-05-27T07:17:51,42.805,6.029,0.068,0.018,0.012,97.0,101.0,97.0,13.4,1505.3,324.7,-0.7,1.9,2469.943,13.33,0.07,75.2
2019-05-27T07:20:52,42.805,6.029,0.004,-0.001,-0.058,99.0,102.0,97.0,13.4,1505.3,327.9,-0.8,1.9,2469.99,13.33,0.004,104.0
2019-05-27T07:23:53,42.805,6.029,0.013,0.007,-0.041,99.0,102.0,97.0,13.4,1505.3,325.7,-0.7,1.9,2470.006,13.33,0.014,61.7
2019-05-27T07:26:54,42.805,6.029,0.028,0.0,-0.051,97.0,102.0,97.0,13.4,1505.3,323.3,-0.7,1.8,2470.035,13.33,0.028,90.0
